Terug naar catalogus

STARLINK-31022

ActiefCommunicatieVLEO
NORAD 58633·PAYLOAD·🇺🇸 United States

Gelanceerd Dec 23, 2023 vanaf Cape Canaveral Space Force Station

Loading…

Volgende Passages (komende 24 uur)

TLE

VersSource: CelesTrak SupGP

Epoch: Sep 14, 2026, 21:19 UTC

1 58633C 23203R   26257.88868056  .00006262  00000+0  22682-3 0  2571
2 58633  43.0034  82.4944 0001468 272.3216  12.9690 15.27571715    13

Volg STARLINK-31022 in realtime met AllMySat

Download on the App Store